GFSMW_925_thetae_072.txt.gz
Theta_e
343 341 340 344 345 344 344 346 346 344 343 345 348 348 347 346 346 348 345 346 346 346 344 345 345 344 345 342 343 343 344 344 344 344 343 344 343 342 342 344 343 342 343
342 340 339 340 344 345 344 344 346 347 345 346 348 347 347 348 346 347 346 345 345 346 344 345 346 344 344 343 343 342 342 343 342 341 340 341 338 339 340 341 343 342 342
342 341 339 340 343 344 345 344 345 347 348 347 347 347 347 347 347 347 346 346 347 347 346 346 345 345 345 343 343 342 342 342 342 341 341 342 342 337 339 339 340 340 341
341 340 340 342 342 344 344 344 344 346 348 348 346 345 345 347 347 347 346 347 349 348 348 347 345 346 346 344 341 342 342 340 340 341 341 341 340 341 343 338 339 339 340
344 340 340 342 342 343 343 344 344 345 346 346 347 346 344 346 346 347 348 348 350 350 348 348 347 347 346 345 345 343 344 342 340 341 345 342 340 339 338 343 339 340 340
347 342 341 342 342 343 343 344 344 346 346 345 347 346 345 347 347 347 348 349 348 350 350 350 350 348 347 346 344 345 344 345 344 345 346 346 341 339 341 340 340 340 341
348 345 340 342 342 342 343 343 344 345 345 345 345 345 344 344 346 347 347 348 349 349 350 350 350 348 349 347 348 345 345 344 346 346 345 346 346 345 342 340 341 342 342
348 347 340 341 342 342 342 343 343 344 344 344 343 344 345 344 345 346 347 346 346 348 347 350 349 350 349 349 348 348 347 348 347 346 346 346 345 345 347 345 340 344 339
348 346 340 341 341 341 341 343 343 343 343 343 343 344 345 344 344 346 348 348 348 347 349 349 349 350 350 350 347 349 349 348 349 347 346 347 346 345 344 346 346 340 346
347 345 343 340 342 341 341 342 343 343 343 343 343 343 342 344 342 343 348 348 349 350 348 348 349 350 350 351 351 348 349 350 349 349 349 347 346 345 344 342 348 348 343
347 344 344 340 341 342 341 341 344 344 344 344 344 344 344 344 344 342 344 348 348 349 351 350 350 350 349 349 349 350 348 349 349 349 348 349 348 348 347 347 348 348 349
343 344 344 341 340 341 342 342 343 344 344 344 344 344 343 344 344 342 342 345 347 347 348 351 351 351 350 350 351 352 350 348 348 349 350 350 350 349 349 350 351 350 351
339 341 342 343 343 342 342 342 343 345 345 345 345 345 344 344 344 344 342 342 345 346 347 347 351 352 352 351 352 351 352 350 349 349 349 350 351 350 350 351 352 353 353
335 335 336 337 340 342 344 344 342 343 345 346 345 345 344 344 344 343 343 342 341 343 345 346 346 348 348 350 352 351 351 351 350 349 349 350 350 350 351 351 352 352 351
331 332 334 335 336 339 342 343 343 343 343 346 346 346 345 344 344 344 343 343 342 341 341 344 344 345 345 347 349 350 350 351 351 350 349 349 349 350 350 350 350 353 353
329 329 330 331 333 336 339 341 343 343 344 344 345 346 346 346 345 344 344 344 343 342 341 341 342 342 344 345 346 350 350 351 352 350 350 350 350 349 350 349 349 349 353
323 326 327 327 329 332 334 335 340 345 344 346 345 345 347 347 347 346 345 344 344 344 343 341 340 341 341 342 344 344 347 351 352 350 350 350 350 349 349 348 348 348 349
314 318 324 325 326 329 328 333 341 345 345 345 347 347 346 347 347 347 347 346 345 344 343 343 343 341 339 337 339 340 343 345 348 351 351 351 351 350 349 349 348 349 348
311 313 317 324 325 324 325 330 335 338 341 341 344 348 347 347 348 348 349 349 346 345 345 344 344 344 344 344 341 339 342 343 344 345 346 348 349 348 350 351 351 349 348
309 311 313 320 323 324 323 325 330 331 331 333 336 341 347 349 350 349 349 350 349 349 347 346 346 347 347 347 347 344 344 345 345 344 345 342 344 346 350 351 351 351 347
308 311 312 316 321 323 323 322 325 326 327 330 333 337 340 344 348 352 352 350 351 351 351 350 349 348 349 350 349 347 345 347 347 346 346 347 344 344 348 350 351 348 343
308 311 312 313 317 321 323 322 322 322 322 326 330 332 336 338 342 344 346 351 354 353 352 352 351 350 351 351 351 349 348 347 348 348 348 348 348 348 345 347 347 345 347
308 310 310 312 315 319 322 321 321 319 318 320 325 328 330 332 336 340 341 347 352 354 354 354 353 353 353 352 352 351 351 350 348 349 349 348 348 349 350 350 350 350 350
307 308 308 311 314 317 320 322 318 316 315 316 318 323 327 328 330 332 336 341 352 354 354 355 354 354 353 353 353 352 351 351 351 350 350 351 351 352 352 352 353 353 353
306 307 308 309 312 317 319 320 316 314 311 313 315 319 323 324 325 328 332 337 345 352 354 355 355 354 354 353 353 353 353 353 352 350 349 350 351 352 352 353 354 354 354
307 308 308 309 311 317 318 317 316 312 309 311 314 316 318 319 321 326 330 332 336 347 354 354 355 355 355 354 354 353 354 354 354 349 349 350 351 353 353 351 352 351 351

GFSMW_925_thetae_075.txt.gz
Theta_e
347 347 346 344 342 342 346 348 348 346 346 345 347 350 349 350 348 347 345 345 346 345 344 345 345 345 346 345 343 345 347 347 344 347 345 346 346 346 346 346 347 346 346
348 346 346 345 343 342 345 348 348 346 345 347 349 349 349 349 349 346 347 345 345 346 345 343 345 344 347 342 343 342 347 347 343 346 346 345 342 342 342 343 344 346 346
348 345 345 345 345 344 345 347 347 348 344 347 349 348 348 348 349 348 349 346 346 346 346 345 346 344 346 347 344 342 345 347 345 342 346 346 345 344 343 344 343 340 344
347 345 344 344 345 345 346 347 347 346 347 344 348 350 350 349 350 349 349 349 346 348 347 346 346 346 344 343 342 342 343 343 346 345 344 342 345 345 345 345 343 342 342
348 347 343 343 344 345 346 347 347 346 347 347 347 349 350 350 350 350 348 348 348 349 349 348 346 345 346 346 344 342 343 343 344 345 348 347 345 345 346 347 346 346 345
348 346 345 344 344 344 346 347 348 348 345 346 348 348 349 349 349 350 351 351 352 354 351 348 349 346 347 344 346 346 345 347 347 349 349 350 347 346 347 348 349 348 346
351 347 346 345 345 345 345 346 348 348 348 345 348 349 350 348 345 347 351 351 352 352 353 350 347 347 348 348 347 345 346 346 349 348 351 350 350 348 348 346 347 347 347
352 350 346 345 345 345 346 346 347 347 348 348 347 347 349 349 348 349 349 351 351 351 351 349 349 348 348 348 347 350 351 348 349 350 346 352 351 350 349 351 348 346 346
348 351 348 345 345 345 346 346 347 348 348 347 349 347 346 347 348 349 346 349 347 350 347 348 349 349 348 348 349 351 347 347 349 353 349 350 352 351 349 350 350 349 349
350 350 350 346 345 345 345 346 347 347 346 347 348 348 348 347 348 346 346 349 348 347 351 350 350 348 349 349 350 351 349 349 352 352 354 352 351 351 350 348 349 350 351
349 351 349 346 346 345 345 345 346 346 347 347 347 347 347 346 348 349 346 347 347 348 349 350 350 351 349 350 350 351 354 352 355 354 354 354 352 350 350 350 350 351 351
345 348 348 346 345 345 345 344 345 346 346 346 346 345 347 346 347 346 345 344 345 348 348 349 352 354 354 352 350 351 353 350 353 353 354 353 352 353 353 353 354 352 354
337 338 340 343 346 346 345 344 344 345 346 346 346 344 344 346 348 348 346 344 343 347 350 348 348 353 355 354 352 352 350 354 355 353 353 353 354 355 353 354 354 353 355
331 332 334 336 338 342 346 346 345 344 345 346 346 345 344 344 346 348 348 348 343 344 348 348 349 349 353 355 355 355 355 356 356 355 354 353 354 354 356 356 356 355 356
327 329 329 330 332 335 338 343 345 346 346 347 347 347 347 344 344 345 347 347 347 345 344 348 349 351 352 352 353 354 356 356 355 355 355 354 352 347 351 352 353 355 355
321 323 326 327 327 330 332 334 338 343 345 345 347 348 348 348 347 346 346 346 347 348 347 348 347 348 349 348 347 348 354 355 355 355 356 354 351 349 349 348 349 351 354
316 319 320 323 326 326 328 328 332 342 346 346 346 347 348 349 349 348 348 348 347 348 348 348 348 347 345 345 346 345 349 353 355 355 356 355 353 351 354 351 349 349 348
313 314 316 318 321 324 325 325 330 335 343 348 347 348 348 348 350 350 350 349 348 348 348 349 348 347 346 343 339 340 343 350 353 353 354 355 354 355 353 355 355 355 354
311 311 312 315 318 321 324 326 327 331 331 336 341 344 347 350 350 350 351 351 350 349 348 348 349 348 346 345 344 342 345 346 350 351 351 352 353 352 345 350 354 354 354
310 310 311 313 315 318 321 325 326 328 330 328 328 333 340 343 351 351 351 352 352 351 350 349 349 349 348 347 347 346 346 347 347 347 348 348 346 348 345 345 350 352 351
308 308 310 313 313 315 319 323 325 325 324 324 325 328 334 337 341 347 352 353 353 353 353 353 352 351 350 349 349 349 345 348 350 350 350 349 348 342 339 340 346 348 347
307 308 309 311 311 312 316 320 322 324 323 322 321 324 328 332 335 339 342 346 352 353 353 354 355 355 354 352 350 351 350 347 350 351 351 350 349 347 345 342 340 341 342
307 307 308 309 310 310 313 317 320 322 322 319 318 320 322 327 330 333 338 344 346 349 353 355 355 355 355 355 354 351 353 350 346 351 352 352 351 349 347 346 346 346 348
307 306 307 308 309 310 311 313 318 321 319 319 317 318 319 323 326 328 332 335 340 345 348 353 356 356 355 356 356 355 351 350 349 347 349 350 350 349 349 348 348 349 349
308 308 308 308 309 309 310 312 315 319 317 317 316 317 318 320 322 325 325 331 335 337 345 350 354 356 357 357 357 357 356 349 347 347 349 351 351 352 352 351 352 353 351
309 309 309 310 310 312 313 313 315 317 315 315 316 316 315 316 319 317 321 325 327 328 330 336 340 348 354 356 356 356 354 353 352 347 352 353 354 354 353 353 352 353 353

GFSMW_925_thetae_078.txt.gz
Theta_e
348 348 348 347 342 342 345 347 348 348 349 349 347 347 348 349 349 351 352 352 352 352 352 350 352 352 349 350 350 349 349 343 345 341 341 340 342 342 342 343 343 344 345
348 348 348 348 343 341 344 347 349 349 350 348 347 348 348 349 349 351 352 351 353 354 352 351 351 352 349 352 352 350 345 342 344 344 343 342 342 341 340 340 341 342 343
350 351 350 348 344 340 344 347 349 349 348 348 351 353 352 353 351 351 351 352 353 353 354 352 351 353 351 347 352 350 350 343 347 349 347 350 344 343 341 344 341 343 342
351 351 350 349 347 343 343 347 350 350 349 352 351 352 350 348 348 350 350 352 353 353 353 353 353 354 350 350 351 349 350 347 344 346 344 348 348 346 344 342 341 341 341
351 351 350 348 347 346 345 347 350 352 349 351 351 352 352 349 349 349 353 353 355 351 352 353 353 354 351 354 352 352 352 347 345 343 344 348 346 349 347 344 340 340 341
352 350 348 347 346 347 347 348 350 352 353 353 353 353 351 351 349 349 352 352 352 353 353 351 352 351 351 354 352 351 353 352 351 347 346 344 344 345 346 345 345 344 345
352 351 350 348 347 347 348 349 350 353 353 353 354 354 354 353 353 352 345 350 351 351 355 354 351 351 351 353 353 350 352 350 347 351 347 346 346 348 349 347 345 346 345
355 352 350 349 348 348 348 349 350 353 353 353 353 354 354 352 351 350 348 349 350 351 353 356 351 352 352 353 355 350 349 351 346 349 350 348 347 349 349 349 348 346 345
354 353 350 349 349 349 349 349 350 352 353 352 353 353 354 353 349 348 350 350 351 350 353 355 354 352 352 352 355 350 352 352 352 350 350 349 348 349 350 350 349 348 349
353 353 352 350 349 349 349 350 350 352 353 352 352 352 353 354 353 351 350 351 349 352 351 356 355 353 355 355 355 352 352 353 352 350 351 353 348 349 350 349 349 349 349
352 352 351 351 349 349 349 349 351 351 353 353 352 352 352 352 353 351 351 352 351 352 354 356 355 354 354 355 357 355 353 355 352 353 353 354 353 350 348 348 348 349 349
340 341 344 351 350 350 350 350 350 350 351 352 352 352 352 352 351 351 351 351 352 352 354 356 355 351 353 355 357 355 352 354 353 353 354 354 351 354 352 350 350 349 350
334 335 337 339 342 345 351 350 349 349 349 349 350 350 351 351 351 350 352 351 352 352 351 354 356 354 353 355 356 357 356 354 354 353 355 353 353 354 350 352 350 350 351
331 332 331 331 333 338 342 345 350 349 348 349 350 349 350 350 349 349 351 352 352 352 351 351 354 356 353 353 356 357 358 355 354 356 356 355 353 353 355 355 355 355 354
328 329 330 329 329 330 332 335 340 344 350 349 349 350 351 351 350 349 350 351 353 353 353 351 351 353 354 354 356 358 357 356 356 357 358 357 355 352 353 352 353 354 355
323 324 325 326 328 328 328 328 330 336 346 349 350 351 350 351 352 351 348 351 352 353 353 353 351 350 348 347 351 352 356 357 358 357 357 357 356 355 351 347 345 348 353
319 319 319 320 322 325 326 328 328 333 336 347 351 349 350 352 352 353 353 352 352 353 353 353 353 352 351 346 344 348 350 351 353 356 356 355 352 355 355 354 350 349 349
318 317 316 317 318 320 322 326 329 330 332 331 335 340 348 351 351 352 353 353 354 353 353 353 354 353 353 351 348 344 346 347 350 351 353 355 354 351 353 355 354 356 355
316 316 315 316 317 318 318 322 326 330 331 330 329 330 335 341 349 352 352 352 354 353 354 353 354 354 354 353 350 347 348 348 348 349 351 352 355 355 354 354 353 352 352
314 314 314 314 316 316 316 319 322 325 329 329 328 327 331 333 337 344 350 351 353 354 355 354 354 354 355 355 353 350 349 349 349 349 350 350 351 352 353 354 355 355 353
313 312 313 314 315 315 315 317 320 322 325 326 326 326 326 328 333 336 340 347 353 353 353 354 354 355 355 355 353 352 350 350 350 350 350 350 350 349 347 349 353 352 348
312 312 312 312 313 314 314 316 317 320 323 324 324 325 326 325 328 334 336 337 345 349 354 355 355 356 357 357 355 354 351 350 352 352 351 352 352 352 350 349 348 348 349
312 312 311 311 312 313 313 314 315 316 319 322 323 323 324 325 325 328 333 335 339 345 349 351 352 354 356 358 358 356 355 352 348 353 354 354 354 354 352 351 349 348 347
311 312 313 312 312 312 313 313 314 314 316 320 321 321 321 322 324 325 327 332 334 337 341 346 350 351 353 355 357 357 356 355 352 351 348 351 352 353 354 353 351 348 349
310 310 311 310 309 309 310 312 315 316 316 318 320 319 319 320 321 322 324 324 324 328 331 335 338 341 348 353 353 354 357 357 354 350 351 352 352 353 354 355 354 353 352
309 309 308 309 309 309 309 310 311 312 317 318 317 317 318 318 318 319 321 321 321 321 321 324 325 329 331 335 343 347 351 354 355 351 353 355 355 356 356 357 357 356 355

GFSMW_925_thetae_081.txt.gz
Theta_e
344 345 344 343 343 344 346 349 348 348 348 349 348 345 346 347 348 351 352 353 352 353 353 349 350 351 349 349 349 348 348 343 340 345 342 339 341 342 341 342 342 343 344
347 348 348 345 342 343 345 348 349 350 349 348 347 345 345 344 347 352 351 353 353 354 352 353 351 353 350 351 350 351 352 339 342 346 346 347 341 340 340 340 340 342 342
349 350 349 347 342 341 344 348 350 351 351 349 349 351 352 352 347 351 350 352 352 353 354 353 353 353 349 349 351 349 346 349 342 346 346 351 350 345 342 342 340 340 341
349 349 349 349 343 342 344 348 350 351 351 351 349 352 349 345 346 348 349 354 353 353 353 353 353 354 351 353 349 346 353 349 347 343 343 347 349 354 349 340 339 340 342
349 350 349 349 345 342 345 349 351 352 349 351 353 352 353 349 349 348 354 353 355 353 352 354 354 354 352 350 351 351 350 346 346 343 343 343 342 343 346 343 339 340 341
351 350 349 350 345 344 343 347 352 353 352 352 354 355 353 351 352 348 351 351 353 352 353 353 354 354 353 354 353 353 353 352 354 352 343 344 344 347 348 344 344 343 344
352 351 351 350 345 345 346 347 351 354 355 354 354 355 354 353 354 354 349 349 350 350 355 354 355 353 354 354 355 355 353 353 349 350 349 348 344 343 348 345 343 347 345
352 351 351 350 348 345 346 349 352 355 355 355 355 356 356 353 350 352 349 348 350 350 358 355 353 354 353 354 354 353 352 349 351 350 351 352 346 345 346 348 347 351 344
355 353 351 349 348 347 346 349 351 355 356 355 356 356 357 356 350 348 351 349 351 351 354 351 353 353 353 354 354 353 355 354 354 351 351 351 348 344 345 345 346 348 356
355 352 353 350 350 350 347 348 351 353 356 356 356 356 356 357 355 352 351 350 350 352 351 353 354 355 353 354 354 352 353 353 352 348 352 350 347 346 346 346 346 346 347
350 350 351 352 351 351 350 350 351 352 355 356 355 355 355 356 357 355 353 352 352 353 353 356 354 356 356 355 354 352 354 356 353 354 354 353 352 351 347 345 345 346 347
340 340 342 343 346 349 350 349 350 351 353 354 356 356 355 355 355 356 355 354 353 353 352 354 356 357 355 355 356 355 350 352 355 353 352 352 351 354 352 352 350 349 352
340 337 333 334 338 342 348 348 349 352 351 353 355 356 355 355 355 354 355 354 354 354 352 353 355 357 353 355 355 356 355 356 355 355 353 352 352 353 352 352 349 348 352
334 334 333 332 333 333 337 341 345 348 350 353 353 354 355 354 355 354 354 355 355 355 355 352 353 356 355 353 355 356 354 356 356 355 355 354 352 353 354 354 354 352 351
332 330 332 331 331 332 331 332 338 343 347 352 353 354 354 354 354 355 355 354 354 355 356 355 352 354 355 354 353 354 355 356 358 356 356 356 353 352 353 352 353 353 354
328 328 329 329 328 329 330 331 332 337 340 343 347 350 352 353 356 355 355 354 354 355 356 356 355 353 352 347 349 354 356 355 358 356 355 354 357 356 355 351 346 349 356
324 324 324 324 325 325 326 329 332 333 333 334 335 340 345 350 352 354 356 356 355 355 356 357 357 356 355 351 347 346 351 353 356 357 357 357 351 354 357 357 353 347 344
324 322 320 321 322 321 322 325 329 334 332 331 330 330 335 342 346 351 353 353 356 356 355 356 357 358 357 355 352 348 346 349 351 353 356 357 355 354 356 357 357 358 357
320 320 319 319 321 320 320 322 325 327 333 332 332 330 330 334 338 343 344 351 353 352 354 355 356 355 358 357 355 353 351 348 349 351 352 352 356 358 354 352 357 357 356
318 317 317 318 319 319 319 320 321 324 326 327 329 331 331 330 333 335 340 341 348 354 355 355 352 354 356 358 357 356 354 352 352 352 352 352 351 352 355 356 356 358 357
316 316 316 317 317 318 318 320 320 322 322 324 326 327 328 330 329 330 335 336 340 347 354 356 355 354 355 355 356 356 356 354 353 353 352 353 352 351 349 351 355 357 356
316 315 315 316 316 316 317 318 319 320 320 320 323 326 326 326 328 330 331 336 338 341 346 351 352 354 353 355 357 357 355 355 354 354 353 352 351 351 351 350 350 349 349
316 315 316 316 316 317 317 317 318 318 319 319 320 322 325 325 325 325 329 331 335 339 339 345 347 351 351 353 355 355 357 355 354 354 354 354 354 354 353 352 352 351 350
314 313 314 314 314 313 313 314 314 315 317 320 320 320 322 323 322 324 324 326 329 332 334 337 338 339 340 349 353 345 347 346 349 351 351 352 353 354 354 354 354 353 351
312 311 311 311 311 311 311 311 313 313 314 315 317 320 321 321 321 322 321 323 324 326 325 325 326 328 331 333 334 330 329 335 341 341 347 355 355 353 354 355 356 357 355
310 311 310 310 309 308 308 309 310 310 311 313 313 316 317 318 319 320 320 320 320 320 320 321 321 322 322 324 326 328 329 332 334 335 347 355 356 357 357 357 358 358 358

GFSMW_925_thetae_084.txt.gz
Theta_e
343 341 341 340 342 346 349 349 348 348 351 350 350 348 348 350 352 353 353 352 352 352 352 352 349 345 345 349 351 349 349 346 345 350 345 340 338 341 341 343 345 343 345
344 344 342 342 343 347 349 350 350 346 351 347 348 348 350 350 350 351 352 353 352 349 352 350 352 350 350 351 350 345 351 344 343 348 350 349 345 343 341 341 341 342 343
347 348 345 344 345 348 349 351 352 347 349 349 348 350 350 350 351 351 352 352 353 353 353 354 352 350 345 351 350 350 343 347 344 346 345 354 353 352 341 340 340 340 342
347 350 347 346 345 347 348 351 354 350 350 352 349 349 349 350 350 350 353 352 351 353 353 353 354 352 349 346 349 348 349 349 348 347 340 345 342 355 354 341 339 341 341
348 349 349 348 343 344 347 351 354 352 350 352 351 348 348 352 349 352 350 353 353 354 353 353 353 353 353 350 352 349 348 351 351 353 344 344 347 345 351 352 342 341 342
350 348 349 349 346 345 346 352 354 354 353 349 350 351 353 350 348 348 349 352 352 353 353 354 354 353 351 347 354 351 352 352 352 346 348 350 343 345 350 353 349 344 344
352 352 352 350 349 345 348 353 356 356 355 349 353 357 355 353 354 351 349 353 347 351 353 353 354 354 350 352 353 353 352 355 347 350 348 349 352 346 347 348 352 347 345
355 351 351 351 351 345 347 352 357 358 356 355 355 353 351 355 353 354 353 346 348 350 354 352 355 354 352 354 354 355 349 351 347 344 345 348 351 351 346 346 349 353 352
357 354 352 351 351 347 348 351 356 358 358 357 357 358 357 355 349 347 349 348 354 349 351 353 353 353 354 353 353 351 353 353 353 350 347 346 344 347 345 346 343 347 358
355 352 351 348 352 349 349 352 356 358 358 357 358 359 360 357 354 355 351 353 355 349 350 351 354 353 354 354 353 354 351 353 353 350 351 347 344 347 351 347 346 347 347
347 350 347 343 351 351 349 351 357 358 359 359 359 358 359 359 359 356 354 350 351 355 352 340 351 353 353 352 353 351 351 353 350 351 350 352 350 349 349 354 352 346 346
340 343 344 343 340 343 350 351 351 355 358 359 359 359 359 358 359 358 357 354 352 352 352 354 355 356 354 354 353 353 352 353 353 353 352 351 353 351 349 349 348 350 348
342 340 339 339 338 337 339 344 350 351 353 358 359 359 358 359 359 359 357 357 356 355 355 352 354 356 355 354 354 353 352 354 354 355 354 351 352 352 351 353 353 353 353
339 339 338 336 336 335 335 338 343 344 349 353 346 359 358 358 358 358 359 357 357 356 356 355 355 355 355 356 355 356 355 355 354 355 356 356 355 353 352 352 352 352 354
334 334 333 332 333 334 333 334 337 338 342 346 348 349 353 357 357 357 355 357 357 357 357 357 355 356 358 357 354 355 356 354 352 353 355 356 356 352 355 354 354 355 353
331 331 332 330 330 331 332 333 334 333 336 338 339 344 349 351 353 353 354 355 356 357 358 358 358 358 355 354 353 352 351 357 356 354 353 355 355 356 354 351 351 350 352
327 327 327 327 326 327 329 332 334 332 332 332 333 336 341 345 347 351 353 354 354 354 356 358 359 359 358 355 352 350 353 357 357 356 356 357 356 353 351 354 354 353 347
325 324 324 324 323 323 325 328 332 334 333 333 332 331 331 337 341 344 345 350 352 353 354 355 357 358 359 359 358 353 352 350 351 352 355 357 356 354 355 358 359 358 356
322 321 321 323 323 322 322 323 325 329 329 330 333 334 333 331 334 338 339 341 343 349 353 354 355 356 358 359 357 358 356 354 352 350 351 353 354 357 359 353 352 356 361
320 319 319 320 321 321 321 322 323 325 325 325 328 329 330 332 333 332 334 337 339 341 344 349 353 355 353 357 357 355 357 357 356 355 353 350 349 353 352 352 359 358 355
318 318 318 319 319 319 320 321 322 323 322 322 323 326 328 328 328 331 333 333 337 339 341 344 347 351 354 356 355 355 356 358 357 357 356 355 355 353 351 350 351 353 355
318 317 318 318 318 319 319 320 321 321 321 322 322 322 324 327 327 327 329 328 334 338 341 341 344 351 350 350 350 351 352 354 354 355 356 356 356 353 353 354 352 351 350
317 317 317 319 319 317 316 317 317 317 317 318 319 323 323 323 326 326 324 328 329 332 340 342 342 342 342 338 348 345 341 343 345 346 349 354 356 355 354 354 353 352 350
316 315 315 315 315 315 314 314 313 314 314 315 317 317 318 322 322 323 324 325 324 327 331 331 330 329 328 329 335 333 331 328 329 333 339 343 347 353 353 353 353 353 353
314 313 313 313 313 312 311 311 311 312 311 312 313 315 316 317 319 321 323 323 322 321 322 323 323 323 323 324 324 323 323 327 328 328 330 334 343 354 356 357 356 355 355
312 312 312 312 311 310 310 309 308 308 309 309 310 311 312 313 315 316 318 318 319 320 319 319 320 320 320 321 322 321 321 323 327 330 330 332 336 346 346 352 353 354 356

GFSMW_925_thetae_087.txt.gz
Theta_e
341 341 342 346 348 345 346 348 348 344 346 349 352 350 347 349 350 349 351 347 350 352 349 350 343 345 346 348 350 347 349 349 345 347 346 343 339 342 344 344 344 344 346
341 339 342 347 349 346 346 347 349 352 346 350 348 349 349 349 351 351 351 350 350 352 350 351 347 348 348 352 350 346 345 345 345 348 344 341 342 341 342 345 344 343 345
342 340 340 346 348 347 344 350 348 349 349 346 349 352 350 349 352 353 351 353 352 350 351 351 350 347 349 347 350 351 345 349 346 344 346 346 345 350 340 340 342 339 343
342 341 341 344 347 349 346 351 346 346 344 350 348 351 351 351 351 350 350 352 351 352 352 353 351 350 346 348 345 351 351 343 347 350 344 345 344 346 344 342 339 342 342
347 343 344 345 347 348 349 351 349 346 345 349 352 349 352 350 350 350 352 351 351 350 352 352 352 348 348 344 347 352 347 349 352 350 350 349 347 351 347 345 339 339 341
347 347 345 346 348 348 350 351 353 350 345 350 353 350 349 350 350 353 350 349 352 353 351 353 353 351 348 348 352 352 350 348 348 350 349 349 350 347 350 347 348 342 341
347 347 347 348 346 348 350 351 354 351 347 351 351 349 352 350 351 350 349 352 351 352 354 353 354 352 349 346 352 352 350 353 344 344 346 342 348 352 351 347 350 347 348
345 347 344 349 347 345 351 351 354 354 349 350 348 349 350 350 350 350 350 351 346 347 351 351 351 353 349 351 353 352 349 350 349 345 343 339 341 345 348 352 344 345 350
343 342 341 348 351 345 350 352 353 353 352 354 347 349 353 352 351 352 353 349 349 350 351 350 350 353 354 352 353 352 353 351 349 348 344 342 338 339 345 351 346 348 345
351 346 347 347 348 347 351 353 354 353 352 355 352 350 350 350 352 351 351 353 352 350 346 350 351 352 353 353 351 352 351 352 352 352 349 350 350 349 344 347 353 353 350
350 350 348 345 347 347 349 354 356 356 354 352 354 353 354 353 352 352 355 354 352 351 350 349 351 352 352 353 353 352 351 353 353 349 353 350 352 350 349 344 347 348 351
342 345 345 346 346 344 344 348 348 353 356 355 357 357 358 358 356 354 353 355 353 352 353 352 341 351 353 354 354 351 352 350 352 350 352 347 349 350 353 351 349 353 352
339 339 338 339 341 342 342 342 346 348 350 354 356 357 358 358 358 357 354 353 354 354 354 352 353 353 353 352 355 354 351 353 353 352 351 353 349 349 352 349 348 351 349
339 338 337 336 335 337 340 340 344 343 346 347 352 353 353 354 357 358 358 356 356 355 354 353 353 353 354 354 355 354 353 351 352 355 354 355 353 353 352 352 350 348 350
333 333 334 334 335 335 337 337 340 342 344 342 342 339 340 349 353 354 358 357 356 357 355 354 354 355 356 354 352 354 356 355 354 351 353 354 354 357 353 355 354 352 351
332 330 331 331 332 334 335 334 336 339 337 341 343 345 340 349 351 353 354 355 355 354 357 356 356 355 354 358 357 355 354 353 356 356 354 353 352 355 358 354 351 354 352
327 326 326 327 328 332 334 334 332 333 334 332 333 336 344 342 344 346 350 352 352 354 355 355 355 355 356 355 353 354 353 353 352 353 356 353 354 353 356 354 352 352 353
323 323 323 323 323 323 329 334 334 333 333 332 333 333 332 335 338 340 341 342 346 350 352 352 353 354 355 355 356 355 352 353 353 353 354 357 356 355 355 353 354 357 356
321 323 323 321 322 322 323 326 325 324 324 324 328 330 330 331 332 331 332 335 339 341 344 349 351 352 353 354 354 354 354 355 354 353 353 351 350 352 353 357 359 359 357
319 319 321 320 319 320 322 323 323 322 322 322 322 323 328 328 329 332 332 331 331 335 338 339 343 345 349 352 352 353 354 354 355 356 356 355 354 353 351 349 351 352 352
318 318 319 319 320 320 321 322 320 319 320 321 323 322 322 324 327 326 326 326 325 332 333 339 339 339 349 349 349 352 353 353 353 354 354 355 356 356 355 354 352 350 350
318 319 320 318 317 317 317 317 317 317 317 317 318 319 321 323 322 324 326 323 324 328 329 336 341 344 336 333 339 344 344 342 344 348 351 352 354 354 353 353 353 353 353
316 317 317 316 315 314 314 313 314 313 314 313 314 315 315 318 319 321 323 323 325 324 328 328 328 328 325 324 327 333 330 329 327 330 338 341 344 349 351 352 354 354 353
314 315 314 314 313 312 311 311 310 310 310 310 311 312 312 313 315 316 316 318 319 321 321 320 321 321 320 320 320 322 321 321 322 324 326 327 331 338 344 347 350 352 352
314 313 313 313 310 310 309 308 308 308 308 309 309 309 309 309 311 312 314 315 315 316 317 317 318 318 318 319 319 320 321 320 320 322 323 324 326 328 330 338 350 355 356
313 312 312 311 310 309 307 307 307 306 306 307 307 307 307 308 309 310 310 311 312 314 316 318 318 318 318 317 319 320 321 320 318 319 323 325 327 329 330 333 338 342 347

GFSMW_925_thetae_090.txt.gz
Theta_e
341 348 347 348 348 345 347 345 344 345 347 347 346 347 348 348 347 347 349 349 349 348 350 350 347 347 346 346 348 348 347 346 347 345 346 343 344 344 343 344 344 343 344
341 344 348 347 347 346 345 343 342 346 345 348 349 346 347 348 349 349 350 349 349 348 348 350 344 345 347 350 347 348 344 343 345 347 342 339 340 341 342 343 344 344 344
340 342 347 347 347 347 346 346 342 343 345 349 349 349 349 348 350 350 349 350 349 349 348 349 348 348 348 347 349 349 348 346 346 347 345 343 341 345 341 342 344 344 343
339 341 347 347 345 346 347 348 346 344 346 345 350 350 350 350 349 350 349 350 350 349 350 350 350 346 345 345 344 350 349 345 350 349 348 348 345 344 341 342 342 339 341
348 341 345 347 346 346 348 348 347 346 347 348 345 349 351 350 348 349 351 348 349 349 350 351 351 349 343 347 345 350 349 350 349 349 348 347 346 351 344 342 339 338 340
349 346 345 345 347 347 348 349 347 346 345 346 350 350 351 350 350 350 350 350 349 349 351 351 350 348 347 346 349 350 350 350 347 347 346 349 350 351 348 344 345 340 340
348 347 347 346 347 348 351 349 347 346 346 345 349 351 351 348 348 349 349 350 349 352 351 352 352 350 346 348 351 348 349 349 348 345 344 344 346 347 348 348 346 346 348
347 347 347 347 347 348 351 352 349 348 348 345 348 351 350 350 349 350 350 349 350 350 351 352 354 352 350 347 348 350 350 348 349 347 345 342 342 342 347 350 345 342 344
346 346 345 345 348 347 349 351 351 349 348 345 348 351 349 349 349 349 348 348 350 345 351 350 352 351 352 347 352 352 350 350 350 348 349 347 347 348 348 348 351 349 342
345 343 343 345 346 348 347 350 352 349 348 348 345 349 347 350 347 349 352 351 351 349 350 350 350 349 353 353 351 351 349 349 350 349 350 349 350 349 349 346 346 348 349
348 349 344 346 347 346 347 350 350 351 352 350 347 347 346 349 349 347 351 351 351 350 350 348 350 349 351 353 353 351 350 350 351 350 348 349 351 350 350 350 349 348 350
344 347 346 346 346 345 347 347 349 349 350 351 350 350 346 348 349 348 351 354 353 352 350 349 348 350 351 351 353 352 351 350 349 352 351 348 347 347 347 353 350 349 351
341 340 342 344 343 343 345 345 346 347 347 350 350 348 347 347 350 352 350 352 355 351 350 351 351 345 348 350 353 354 352 351 351 352 350 350 352 351 346 348 350 349 348
340 338 337 337 340 341 342 344 346 346 345 345 346 347 350 351 351 350 353 349 351 354 353 352 352 351 352 351 352 352 353 353 351 351 352 353 353 353 351 352 351 352 351
337 336 336 336 337 339 340 342 344 346 343 342 344 341 344 349 350 351 352 354 353 353 353 354 353 353 354 353 353 353 354 355 354 353 353 353 353 353 353 354 355 354 354
332 332 333 333 334 336 338 340 341 342 342 342 342 342 343 346 346 350 352 352 353 354 354 355 355 354 354 354 354 355 354 353 355 355 354 355 354 352 351 352 355 355 353
326 326 327 331 333 334 335 336 336 336 338 339 340 342 343 342 342 344 345 348 349 352 352 352 353 354 354 355 355 354 353 354 355 353 353 352 353 354 352 352 352 354 354
322 321 321 322 328 333 333 333 333 333 333 333 333 333 335 339 339 337 337 340 340 343 347 350 352 352 353 354 354 354 353 352 352 352 352 353 353 353 354 355 354 355 354
320 320 320 321 324 329 325 323 322 322 322 323 324 328 328 329 333 332 331 330 332 335 338 340 343 348 350 350 351 352 353 353 353 353 354 354 354 353 352 351 353 354 354
320 319 319 320 321 322 321 321 319 319 319 321 322 323 323 325 326 326 327 327 324 328 331 336 339 339 344 349 349 350 352 353 353 353 353 353 354 355 354 353 352 351 350
318 319 319 318 319 318 319 317 316 316 317 317 319 320 320 321 321 323 325 325 323 326 331 334 340 339 335 336 339 343 344 341 345 347 349 350 353 353 354 352 352 353 351
318 317 316 315 315 315 315 313 313 313 314 314 314 315 316 316 318 320 322 322 323 324 322 328 329 324 323 321 320 321 326 323 324 327 329 334 339 345 347 349 350 351 352
316 315 314 313 312 312 312 310 310 311 311 311 311 312 313 313 314 315 315 316 316 316 316 317 318 318 317 318 319 319 320 321 320 320 321 321 322 325 327 334 337 343 347
314 314 312 311 310 310 310 308 308 308 308 308 308 308 308 309 310 312 312 312 312 311 312 313 313 315 317 317 317 317 320 321 321 320 318 318 320 321 322 323 324 327 333
313 313 311 310 309 309 308 307 307 306 306 306 306 307 307 307 306 306 306 307 306 308 309 310 311 311 312 313 315 316 315 316 319 320 318 318 318 319 320 322 325 329 331
312 312 310 309 309 307 306 306 305 305 305 305 305 304 304 304 305 305 305 305 305 305 306 305 306 308 309 310 312 315 317 317 317 317 317 318 317 318 321 325 329 334 336

GFSMW_925_thetae_093.txt.gz
Theta_e
348 348 348 348 348 347 346 350 348 347 347 347 348 347 347 347 348 348 346 348 347 347 347 348 346 346 346 346 347 347 346 346 345 345 344 343 342 343 344 343 343 343 343
348 348 347 348 347 346 347 349 345 347 346 346 347 347 346 346 345 345 348 349 347 348 348 348 345 346 346 347 346 348 344 345 346 346 342 338 339 340 340 343 343 343 343
349 347 346 347 347 346 347 347 346 345 347 346 346 346 347 348 348 348 349 349 348 347 347 348 346 348 347 347 346 347 348 346 348 346 345 340 339 341 340 340 341 343 343
346 347 346 347 347 345 346 344 343 344 344 347 347 348 348 348 348 348 349 349 349 348 348 349 348 347 347 346 345 347 347 348 347 348 347 347 346 343 340 340 341 342 342
344 347 346 346 346 345 345 343 342 344 344 346 348 349 348 348 348 346 346 348 348 349 348 348 348 348 347 343 344 348 348 349 348 346 347 346 346 347 343 341 339 339 338
342 347 346 346 346 346 346 345 343 343 345 344 344 347 348 349 349 348 348 349 347 347 348 350 350 348 348 346 345 348 348 348 346 345 345 346 349 349 347 343 343 343 340
346 347 345 346 344 347 348 348 346 345 346 347 345 344 348 350 349 348 349 349 349 348 348 351 350 349 349 347 350 349 347 348 348 345 343 343 344 345 350 347 343 344 347
348 347 346 344 346 347 349 348 348 347 346 345 346 347 349 349 347 347 348 349 348 347 350 351 350 350 351 347 346 350 348 348 347 346 347 345 345 343 347 350 347 341 342
346 347 346 347 347 347 350 348 348 347 346 345 346 348 350 350 349 348 349 349 349 349 349 350 350 349 348 350 348 348 349 350 349 348 349 350 347 348 349 347 349 348 343
345 346 346 347 347 346 348 351 349 347 346 346 346 346 350 349 349 349 349 348 348 350 349 347 350 350 351 350 347 349 350 350 348 350 350 350 350 350 349 348 346 347 348
346 344 346 346 345 346 346 349 351 350 349 348 348 345 348 349 348 348 348 350 351 350 349 349 349 351 349 351 353 351 350 350 350 350 350 350 348 349 349 350 350 348 350
347 345 345 346 345 345 347 349 350 350 350 349 349 348 346 348 347 347 348 345 350 350 350 350 348 349 349 350 351 352 352 351 349 349 350 350 349 347 348 348 351 348 349
343 346 346 346 346 346 346 346 346 346 346 347 349 350 350 351 349 346 347 348 349 350 352 351 349 348 349 350 350 350 350 351 351 350 350 351 350 351 351 349 348 349 350
341 340 341 343 343 344 346 345 344 346 345 343 344 346 347 348 349 350 349 348 350 350 352 351 350 350 350 345 347 349 351 351 352 352 351 350 350 351 351 353 352 353 353
339 339 339 339 340 341 342 345 345 345 344 343 343 342 342 345 346 348 349 347 349 352 351 351 352 352 352 351 352 352 353 353 352 352 352 352 352 350 349 350 349 352 353
337 337 336 337 338 338 339 342 342 343 343 343 342 342 342 342 342 343 345 347 348 348 350 351 352 352 353 353 353 354 354 354 354 353 353 352 352 353 353 353 352 351 351
332 333 334 335 334 335 336 336 338 340 340 340 340 341 342 341 340 341 341 341 341 342 346 349 350 351 352 352 352 353 354 353 352 352 353 353 352 351 351 351 351 353 352
323 322 323 330 332 333 333 332 332 331 332 333 333 334 336 339 339 338 339 339 339 338 338 342 345 347 349 351 351 352 351 353 352 352 351 351 351 352 352 352 352 351 351
320 319 322 325 324 323 322 322 322 323 323 323 323 326 330 332 329 331 331 326 327 332 332 334 339 340 342 348 349 350 350 351 351 351 352 352 352 353 353 353 353 352 352
318 320 321 321 321 320 320 319 318 319 318 319 319 321 323 323 323 325 325 323 324 328 330 333 342 343 339 336 336 343 345 345 345 345 346 347 349 351 352 351 351 351 352
318 319 320 318 318 318 319 316 315 314 314 315 317 318 318 318 320 322 323 323 324 334 336 332 328 327 323 326 325 322 322 321 321 323 326 329 327 333 340 344 344 344 345
315 316 314 314 315 316 316 313 312 311 312 312 313 313 314 315 316 317 317 318 318 318 317 318 317 317 316 317 317 319 322 321 320 320 319 318 318 319 321 322 323 329 331
313 313 313 312 311 312 313 311 309 309 309 310 310 310 311 312 313 314 314 314 313 313 313 313 314 314 314 315 316 316 316 317 319 320 320 320 318 317 317 318 319 322 324
312 312 311 310 308 309 309 308 308 308 307 306 307 307 307 307 308 309 308 308 309 309 309 309 310 310 310 311 312 314 316 317 316 317 317 318 317 317 317 317 319 324 328
312 311 310 309 307 307 307 306 306 306 306 306 305 304 304 304 304 305 305 305 305 305 304 304 305 306 305 304 304 306 311 314 315 316 316 317 317 318 318 319 322 328 334
311 309 309 308 307 306 306 305 305 305 304 303 302 302 303 303 303 302 301 300 301 301 300 299 300 300 299 299 300 303 308 311 313 314 314 315 316 318 320 323 326 328 330

GFSMW_925_thetae_096.txt.gz
Theta_e
345 346 347 347 347 347 346 346 348 349 349 348 348 348 346 343 347 346 347 347 347 345 346 346 346 345 345 345 345 346 344 343 344 343 343 341 339 338 341 343 343 343 343
346 347 348 347 347 347 347 348 348 347 348 346 347 347 346 346 347 346 346 347 348 348 345 346 345 345 346 346 347 346 345 345 345 344 341 345 340 342 341 340 341 342 343
348 348 346 347 347 347 347 347 348 346 346 346 347 347 346 346 346 346 346 348 347 346 344 347 345 346 346 346 346 347 344 347 347 347 344 345 346 340 339 339 340 341 341
347 347 346 346 347 346 345 348 347 347 345 345 347 346 346 347 347 347 347 347 348 348 347 348 346 347 346 346 345 347 346 347 347 347 346 347 346 348 348 340 339 340 338
347 347 346 347 346 345 345 346 347 346 347 345 346 347 347 347 347 347 347 348 346 346 347 347 348 347 347 343 344 347 347 347 346 345 347 346 347 347 343 347 344 342 337
347 346 346 347 346 345 345 346 346 345 346 347 347 346 347 346 347 348 346 347 346 348 347 348 348 348 347 345 345 348 347 347 345 344 343 344 345 348 348 346 343 344 343
344 347 346 346 346 345 345 345 344 343 344 346 346 347 346 347 347 348 347 347 348 347 347 347 349 348 348 346 345 346 347 347 347 346 344 341 342 345 349 346 343 343 344
345 347 345 344 345 345 346 345 344 343 344 345 344 344 344 346 348 348 347 348 348 348 347 348 350 349 349 348 347 349 349 346 346 347 346 345 344 343 346 348 347 348 342
347 347 346 345 345 345 347 347 346 344 343 345 347 345 345 346 347 347 348 348 348 348 348 348 349 349 349 349 348 345 348 349 348 348 348 349 347 348 348 346 347 347 350
345 345 344 344 345 345 346 347 347 346 345 346 346 346 348 348 348 348 348 348 347 348 348 348 347 350 349 349 350 347 348 350 349 348 349 349 349 349 349 349 346 346 346
347 346 347 346 346 345 347 350 348 347 347 346 345 345 346 349 349 348 348 349 349 349 348 348 348 348 349 350 350 350 350 349 350 349 349 349 349 348 348 349 350 348 349
344 345 346 346 346 346 347 348 348 347 347 347 346 347 346 346 349 348 347 348 348 345 348 348 349 349 349 349 349 350 350 348 349 348 349 348 349 348 347 347 349 350 348
346 343 345 345 345 345 345 346 347 346 346 347 347 349 350 349 348 348 347 346 348 348 347 346 349 348 348 348 349 349 349 349 350 349 349 349 349 350 350 350 350 348 349
345 346 345 345 345 345 345 345 346 344 343 343 345 347 347 348 348 348 348 348 347 348 349 349 350 351 349 348 348 347 348 349 350 350 350 350 350 349 349 349 350 351 351
342 342 344 343 343 345 346 345 345 345 342 343 341 341 341 342 343 345 345 346 348 349 350 351 351 351 350 350 350 350 350 351 351 352 352 352 351 352 351 351 350 351 351
340 339 340 340 341 342 344 345 344 344 343 342 342 341 341 340 341 341 342 343 344 345 346 348 350 350 350 351 352 352 352 353 353 353 353 353 352 352 352 352 352 352 352
338 338 337 336 335 337 338 338 340 341 341 340 340 341 341 340 339 340 340 339 340 340 340 341 342 345 348 349 349 351 352 352 352 352 351 351 351 352 351 351 351 352 352
328 330 333 332 326 326 328 329 333 334 333 331 333 335 336 336 336 337 337 337 337 338 337 336 339 341 343 347 348 348 349 350 350 350 350 350 350 350 350 351 352 352 352
324 325 324 322 322 322 324 325 324 323 324 324 325 326 327 328 330 331 332 334 335 335 336 336 342 337 329 330 339 344 346 346 346 345 345 345 344 340 345 348 350 351 351
324 322 321 320 320 318 321 321 318 318 317 318 319 320 321 322 323 325 324 325 328 331 334 337 330 327 326 324 323 322 325 323 322 326 324 323 322 324 327 331 339 340 343
320 320 319 317 316 317 318 315 314 313 313 315 317 317 318 319 320 321 322 325 333 335 330 324 319 319 319 319 320 321 321 320 320 320 320 319 318 318 319 319 321 324 324
315 316 315 314 315 315 316 312 311 311 312 312 313 315 316 316 317 317 317 317 319 319 316 315 314 314 314 315 316 316 317 317 317 318 319 319 319 317 317 317 318 321 325
312 313 314 312 312 312 313 311 309 309 309 310 310 310 312 313 314 315 314 314 314 313 312 312 311 311 312 313 314 315 316 316 316 316 316 317 317 317 317 317 317 320 329
311 311 311 310 309 309 309 308 308 307 307 307 306 307 308 309 309 309 309 310 309 308 307 306 306 306 307 308 309 310 313 314 315 315 316 316 316 316 316 317 318 321 327
311 311 310 309 308 307 306 306 306 306 306 305 304 304 304 305 305 305 305 305 303 303 302 301 302 301 300 298 299 300 302 305 306 309 311 313 313 313 314 315 317 319 320
311 309 308 307 306 305 305 305 305 305 304 302 302 302 303 302 301 301 300 300 299 298 298 298 297 297 296 297 297 298 299 301 301 303 303 306 308 310 311 313 315 317 318

GFSMW_925_thetae_099.txt.gz
Theta_e
347 347 348 349 349 349 348 349 349 349 348 348 349 349 348 348 347 346 346 345 347 345 345 346 345 345 348 346 345 346 346 349 347 349 346 345 341 343 344 345 346 344 345
348 347 348 349 349 349 348 349 348 348 348 350 348 349 348 347 349 346 346 346 347 347 345 346 345 344 348 346 346 345 349 350 347 349 348 346 344 346 345 343 342 343 342
349 349 348 348 349 349 349 349 349 347 348 350 348 347 346 347 350 348 348 347 346 345 344 346 344 345 345 349 345 347 348 350 350 347 350 349 349 349 345 344 344 340 344
348 348 348 349 349 349 349 349 348 348 347 347 349 346 349 348 350 347 346 346 348 347 344 345 346 346 346 346 345 348 349 352 351 351 350 349 351 352 346 347 345 344 342
346 348 348 348 348 349 348 349 347 348 347 346 349 347 349 351 348 347 346 347 346 346 345 346 348 346 347 344 344 348 346 351 350 349 352 353 352 352 352 349 348 346 345
347 347 348 348 349 349 347 348 347 348 346 345 346 347 348 348 350 350 351 350 348 349 345 347 346 348 347 346 344 348 347 347 347 348 349 348 350 352 352 350 350 351 350
347 349 349 348 349 348 347 347 348 349 346 347 348 348 346 346 345 347 351 350 346 346 347 346 347 348 347 347 345 346 347 348 351 345 349 348 348 350 352 353 350 349 349
347 349 349 347 349 348 348 348 348 349 347 348 349 347 347 349 347 347 351 351 351 350 348 347 347 349 348 347 346 349 352 347 350 347 345 350 350 349 351 351 352 351 350
347 348 349 349 349 346 348 349 349 348 347 347 349 347 345 345 347 346 347 349 348 350 348 347 349 347 348 349 348 348 349 350 350 349 347 351 351 351 352 352 350 351 351
348 349 347 347 346 347 346 348 349 348 348 347 349 348 348 345 346 347 347 347 348 348 348 348 348 349 348 347 347 351 349 349 352 351 352 353 352 351 353 352 352 351 350
350 350 347 346 345 346 344 347 348 348 348 346 346 347 348 349 347 348 348 348 348 348 348 348 347 347 347 349 349 349 351 346 349 348 351 354 351 352 351 351 353 352 352
349 350 348 347 345 344 344 348 350 348 348 349 347 347 345 345 349 348 347 347 347 345 346 347 347 348 348 350 351 352 352 348 348 348 347 348 352 354 352 351 352 352 353
348 349 349 348 347 345 344 345 347 348 345 346 348 346 345 346 350 351 351 348 346 345 348 347 347 347 347 347 348 348 350 348 347 347 348 350 348 348 352 350 348 352 353
349 349 348 348 348 347 346 346 345 344 342 342 344 346 345 346 350 348 347 348 347 345 348 349 349 349 349 349 348 348 350 348 349 347 348 348 349 349 349 351 350 351 349
347 348 349 348 348 348 347 346 344 345 343 341 341 343 344 346 346 347 347 347 348 348 348 349 351 351 351 350 350 350 351 350 353 351 351 352 350 350 350 350 348 350 350
345 346 346 345 345 346 346 346 345 344 344 342 341 341 341 342 343 343 344 344 345 346 346 347 348 349 351 350 350 351 353 354 355 356 352 355 351 352 351 351 351 351 351
342 342 341 339 341 343 344 344 344 343 343 342 342 340 339 339 339 339 339 339 339 340 342 344 345 343 344 346 348 349 350 349 351 353 352 352 352 351 351 353 351 351 351
337 336 330 328 330 334 336 337 340 340 340 339 339 338 338 338 337 337 337 337 337 337 340 344 339 337 338 345 347 347 348 350 349 349 348 348 345 343 344 346 351 353 353
329 327 325 324 324 326 328 328 328 331 332 332 333 334 333 334 334 334 334 333 334 336 341 338 331 328 327 331 338 340 342 339 336 337 336 334 332 331 340 341 337 342 347
325 322 322 321 322 321 321 322 320 320 321 321 322 323 324 326 326 329 328 330 332 335 333 329 325 321 320 322 322 325 327 327 324 324 320 319 318 318 319 320 326 330 331
321 320 319 317 317 318 318 318 319 317 316 316 317 318 320 321 321 322 326 329 332 330 324 319 318 319 318 319 321 322 320 319 324 321 323 320 318 318 317 317 323 322 321
317 316 315 315 314 315 315 314 313 313 313 314 315 315 316 316 317 320 323 327 323 318 318 317 315 313 312 313 315 316 316 316 316 316 316 317 317 317 317 319 318 318 326
318 317 315 314 314 314 315 314 312 311 311 312 312 313 313 314 314 315 315 316 315 315 313 314 314 310 310 311 312 313 314 314 314 315 315 315 316 316 319 316 316 322 325
317 316 315 314 313 312 311 311 310 310 310 310 310 310 311 310 310 311 311 311 311 312 312 310 309 306 304 304 304 304 305 305 307 309 313 312 314 316 317 318 319 320 322
315 315 315 313 311 310 309 308 308 309 309 308 308 308 308 308 307 306 307 304 302 305 306 305 303 303 301 298 297 299 300 301 302 305 308 309 310 312 312 314 316 317 318
313 313 313 312 310 308 307 307 307 307 307 307 306 306 305 305 305 303 300 298 298 298 298 298 299 297 296 296 297 298 298 299 300 305 306 305 306 307 308 309 310 310 309

GFSMW_925_thetae_102.txt.gz
Theta_e
347 348 349 348 347 348 349 348 349 351 350 349 348 349 348 349 350 350 352 352 351 351 351 350 351 351 350 353 352 349 349 345 346 344 343 342 343 343 344 344 344 344 344
348 348 349 349 348 349 349 350 350 352 352 350 349 349 348 348 348 349 351 352 352 350 351 353 351 352 350 354 355 353 347 347 350 345 345 344 342 343 342 343 343 343 345
348 349 349 349 349 348 349 350 351 351 353 352 352 353 352 351 351 351 350 352 352 351 351 352 352 353 350 350 353 352 354 347 351 353 349 346 347 343 341 343 342 344 345
349 348 348 350 350 350 349 350 352 351 353 355 351 352 350 350 351 351 350 350 350 351 350 352 352 354 351 352 352 352 353 354 348 350 352 354 356 348 345 342 343 342 342
349 349 348 348 349 350 350 350 352 351 350 354 352 350 349 349 350 351 351 350 350 351 352 352 354 354 351 352 353 353 352 352 350 349 351 354 353 353 347 346 344 342 344
348 348 348 348 349 350 351 350 353 354 352 353 353 352 350 351 351 351 351 349 349 349 350 350 351 352 353 354 350 351 351 352 353 350 349 349 349 350 349 347 348 347 348
349 348 349 350 350 350 351 350 352 354 353 353 352 352 350 349 350 351 348 352 351 350 350 351 351 351 352 354 351 350 351 352 353 353 350 348 348 350 351 350 349 348 348
350 349 349 350 351 351 351 350 351 353 353 352 353 353 350 348 347 348 352 349 351 350 353 351 352 352 351 353 354 352 349 351 350 352 353 349 349 348 348 350 350 349 348
350 349 349 351 351 351 351 351 351 352 352 351 352 351 349 349 350 351 349 351 350 353 352 353 352 353 352 353 354 351 353 354 353 351 351 350 348 349 349 349 348 349 350
349 349 349 350 350 350 352 351 351 352 351 351 351 350 350 349 347 349 348 350 349 351 354 355 354 352 352 352 353 352 352 354 351 350 352 352 348 350 348 348 347 348 347
351 350 349 350 351 351 351 349 352 353 352 351 349 349 350 349 350 350 348 351 350 349 353 351 355 354 352 353 355 354 353 353 351 352 353 353 355 349 347 346 347 347 347
351 352 349 349 351 351 348 349 348 351 352 351 351 350 347 349 348 350 349 351 350 352 352 352 350 353 352 352 354 353 351 352 351 350 351 352 350 354 352 350 350 348 350
352 351 352 350 349 347 345 344 349 352 351 352 351 351 347 347 349 350 350 351 350 351 352 353 354 351 353 349 352 353 353 352 351 350 351 351 351 352 350 353 351 348 350
353 353 353 351 351 349 346 344 343 343 349 350 351 349 349 349 349 350 352 351 353 350 350 351 353 352 351 352 351 352 353 353 351 352 351 351 351 352 352 351 352 351 351
352 352 351 351 351 350 349 347 344 345 344 345 345 349 351 351 351 351 352 353 353 350 352 352 354 354 352 350 355 355 355 355 353 354 352 352 353 351 350 350 352 352 351
351 352 351 350 350 350 349 348 347 346 344 342 342 343 341 344 350 351 352 352 353 354 354 355 355 354 352 351 350 350 354 355 354 353 354 352 353 354 354 353 352 351 352
349 350 351 350 350 350 349 349 347 345 344 341 342 341 342 343 345 346 348 350 350 351 351 352 352 345 341 346 347 349 352 355 353 354 355 354 349 350 349 350 350 352 353
342 339 337 336 337 343 346 347 345 346 345 344 342 342 340 340 340 340 340 343 345 346 348 345 341 336 337 344 347 348 354 353 350 347 349 348 346 344 344 345 349 352 353
335 331 331 328 329 333 336 341 340 340 339 339 339 338 338 338 338 337 337 339 342 343 345 340 334 328 329 336 342 346 345 344 341 336 334 335 330 325 333 337 339 341 343
328 326 323 323 323 324 327 328 327 330 329 330 332 333 335 339 340 339 335 335 340 340 334 328 322 320 320 322 332 336 338 337 336 333 329 320 318 317 317 328 331 332 330
323 322 320 319 320 320 320 320 320 320 322 323 326 326 327 329 330 330 333 336 335 333 324 320 320 321 319 321 323 322 323 330 328 327 325 322 317 317 317 320 324 322 317
318 317 317 316 317 318 319 319 318 319 320 323 324 324 324 323 326 329 330 327 326 323 322 320 317 314 313 315 316 317 318 317 317 318 317 317 316 316 317 319 316 317 323
316 315 315 315 316 317 316 316 316 319 319 320 321 321 321 321 323 326 323 323 325 325 324 323 320 314 312 310 311 312 314 314 315 316 315 315 315 317 320 318 318 322 323
317 317 316 315 315 315 315 316 316 316 317 318 318 318 318 318 319 319 320 322 322 322 321 320 318 314 309 306 306 305 308 306 310 310 315 313 314 316 316 317 319 320 320
319 318 317 315 314 313 312 313 314 315 315 315 315 315 315 315 314 310 311 310 305 311 316 314 312 312 310 301 299 300 301 301 302 309 310 310 311 311 312 314 313 314 311
318 318 317 315 313 312 312 312 312 313 313 313 313 312 313 312 311 308 303 299 299 301 302 304 305 300 298 298 298 298 299 300 306 308 309 307 307 307 308 306 307 308 308

GFSMW_925_thetae_105.txt.gz
Theta_e
345 345 345 344 345 346 346 345 347 347 349 347 347 348 349 348 349 352 351 351 352 352 353 351 351 351 350 352 351 351 348 343 343 347 342 342 343 345 344 344 344 344 345
347 347 347 346 344 346 346 346 349 349 351 347 348 349 348 348 348 350 351 352 351 353 351 354 352 352 350 353 354 353 350 343 343 346 345 345 343 343 343 343 342 344 344
347 349 348 347 346 346 347 348 349 351 352 349 351 352 351 351 348 349 350 351 352 351 354 353 356 351 352 351 354 350 351 345 344 351 352 349 354 343 342 342 343 343 346
346 348 348 348 346 347 347 350 351 353 353 354 350 351 351 348 350 350 349 351 352 351 352 353 354 354 353 353 352 351 356 350 344 344 347 353 354 358 346 341 343 342 343
346 345 347 346 346 348 348 349 352 353 352 352 351 353 350 351 351 350 352 353 352 351 351 353 354 354 353 352 355 352 354 352 351 347 346 348 348 346 348 352 345 342 343
348 347 346 347 346 348 347 349 352 353 352 354 354 354 353 351 352 352 352 352 350 352 352 352 353 353 353 353 351 354 353 355 355 352 347 346 348 351 350 349 347 347 348
349 348 348 348 349 350 350 348 352 353 353 354 352 353 353 353 353 352 350 351 351 349 352 353 353 352 353 355 352 354 356 352 354 355 353 344 345 346 348 347 350 346 346
350 348 348 349 349 350 350 348 352 353 353 353 353 353 353 350 349 350 352 353 353 350 354 353 352 352 354 353 354 352 349 350 351 353 354 353 346 346 346 347 347 348 349
346 348 347 349 350 349 350 350 352 353 353 353 353 353 352 352 350 347 352 354 353 352 355 352 352 352 352 353 354 352 354 355 354 350 352 351 348 345 346 346 346 347 348
349 349 348 348 347 349 350 351 351 352 351 351 350 351 351 351 351 352 352 349 352 353 354 354 354 354 354 354 354 351 352 353 352 348 349 354 348 350 347 346 345 345 346
351 350 351 350 349 350 350 351 351 353 352 351 350 349 348 348 349 348 350 351 352 352 354 355 354 353 355 355 355 356 353 354 353 352 352 351 352 351 349 349 347 345 345
351 349 348 350 354 352 352 353 356 352 351 351 351 351 350 349 347 348 349 352 353 353 354 355 354 352 354 354 355 356 351 352 352 352 352 352 349 353 353 351 350 347 348
351 349 348 351 355 355 356 354 354 353 354 353 353 353 351 350 348 347 348 350 352 353 353 353 353 354 353 353 354 355 352 352 351 350 351 352 352 352 353 354 352 349 352
354 354 353 350 352 352 352 353 351 347 347 347 353 353 353 350 350 350 348 350 353 352 352 353 353 354 353 354 352 354 354 354 352 352 352 351 352 353 354 353 354 353 352
355 354 355 355 352 352 351 349 348 347 344 344 348 349 351 352 352 352 353 349 350 350 351 351 352 352 352 350 352 353 354 355 353 352 353 351 352 352 351 350 352 355 353
355 355 354 353 353 353 352 351 350 349 346 346 347 349 350 353 353 352 353 352 352 351 351 352 353 353 351 348 349 349 354 354 356 355 352 351 353 354 353 353 350 351 355
353 354 352 352 352 352 352 351 350 348 348 347 346 346 346 343 344 349 351 352 352 352 353 352 353 352 348 347 348 349 349 353 355 355 355 355 350 351 352 352 351 351 351
351 350 348 348 348 351 351 351 350 350 348 348 345 345 342 341 342 343 345 348 349 350 350 349 346 340 335 344 346 346 352 354 354 354 353 351 348 343 342 342 349 350 351
340 337 336 337 334 339 346 349 349 348 348 347 347 346 345 343 341 341 341 342 344 345 343 342 338 332 332 341 344 348 351 349 346 342 340 339 330 322 324 339 341 342 343
332 329 327 326 325 327 332 336 335 337 337 340 340 340 341 339 339 339 338 338 340 340 340 333 328 323 323 332 338 341 345 346 340 332 326 321 319 318 318 332 331 331 328
325 323 320 321 322 323 326 323 324 325 328 330 333 334 334 336 337 337 339 336 337 334 330 326 323 322 322 323 324 331 333 333 336 335 331 324 317 317 317 318 325 317 316
320 319 319 319 319 320 320 320 321 322 324 327 328 328 327 328 331 335 332 332 329 329 327 324 322 319 316 317 317 318 320 321 324 323 320 317 316 315 317 320 315 316 324
317 317 318 319 318 316 318 318 319 320 323 324 326 327 327 329 331 332 331 329 328 328 328 328 325 321 316 314 315 315 314 315 318 316 315 315 315 317 320 319 319 322 323
317 315 316 316 316 316 316 316 317 318 320 321 322 324 324 325 327 329 329 329 329 329 329 328 326 321 316 313 309 309 311 309 312 312 316 313 314 316 316 319 319 320 316
318 318 316 315 314 315 315 314 316 317 318 318 318 319 319 322 318 314 315 315 314 314 314 323 321 318 319 308 301 302 304 305 305 311 313 312 312 312 312 310 311 312 312
318 317 315 316 314 314 312 313 314 314 314 315 316 316 317 317 315 313 307 305 305 309 310 311 309 306 306 300 299 299 300 302 309 312 312 311 310 311 309 309 308 309 308

GFSMW_925_thetae_108.txt.gz
Theta_e
345 343 344 344 346 347 346 344 347 347 348 348 347 349 345 349 347 348 352 353 352 352 354 352 350 339 350 350 352 353 353 345 344 348 343 342 344 346 346 345 346 342 347
347 344 344 345 345 347 347 348 346 348 348 347 348 349 347 349 351 352 350 352 350 352 353 354 353 349 353 351 354 351 354 347 343 346 354 354 347 345 344 344 344 343 344
347 347 346 344 345 347 349 347 350 342 350 352 347 350 347 349 349 350 351 352 351 351 353 354 352 352 352 353 354 353 356 353 344 342 354 358 358 349 342 341 343 340 345
348 348 346 346 346 348 348 351 351 343 350 353 349 347 351 351 351 350 350 351 350 351 351 352 353 353 350 352 354 354 353 356 354 345 345 350 346 344 352 343 343 344 346
347 348 344 348 347 348 349 351 353 350 350 347 352 353 351 349 348 348 351 353 351 352 352 351 351 354 354 352 355 353 352 355 356 356 352 345 351 346 352 346 340 343 344
348 348 345 347 349 347 349 353 354 352 351 351 350 350 351 345 348 349 350 353 353 350 352 352 354 354 353 353 351 354 352 353 353 352 356 352 346 343 344 343 341 345 346
348 348 348 349 349 347 349 353 354 351 352 354 353 353 350 351 349 349 351 350 349 353 352 353 352 353 350 354 351 354 352 352 352 354 353 355 347 340 346 347 342 343 345
346 351 347 347 349 349 347 353 356 354 352 353 354 353 353 353 352 352 351 346 340 349 353 352 353 353 354 354 354 353 349 351 351 353 350 347 348 348 346 347 348 349 350
344 347 347 347 347 352 351 350 356 356 355 354 352 353 353 353 352 349 344 346 338 349 352 353 353 352 353 354 354 352 353 353 351 350 349 348 351 350 352 344 345 349 356
347 350 349 347 345 351 348 348 355 354 355 354 353 352 353 352 353 350 348 348 344 351 349 353 352 353 353 351 352 352 353 351 352 352 352 354 351 350 352 352 350 347 346
346 352 351 351 348 346 348 351 355 355 354 354 354 354 351 352 350 351 350 352 349 353 348 352 355 354 354 354 355 353 350 354 353 352 352 351 349 351 349 348 349 347 348
352 351 350 353 352 351 353 348 354 354 353 350 351 351 349 349 350 349 350 348 353 354 352 353 354 353 354 354 355 354 353 353 351 352 352 352 352 352 353 353 353 351 351
356 353 352 348 346 347 344 350 349 352 353 353 353 351 350 352 348 349 347 348 352 353 353 354 352 353 353 353 355 354 352 353 352 351 351 352 353 352 351 352 353 352 352
356 354 353 351 347 341 338 348 345 353 350 347 350 346 351 350 349 349 350 349 350 351 352 353 352 353 350 353 354 354 354 353 354 352 351 350 351 352 352 353 352 353 351
357 355 353 354 356 350 350 355 353 351 352 351 352 352 352 353 351 351 349 349 352 352 351 352 352 353 353 352 352 353 353 352 352 354 354 352 352 350 350 351 349 350 355
355 357 357 355 355 355 353 351 350 350 350 346 344 342 344 346 350 350 351 352 352 350 350 350 351 351 352 349 347 351 352 352 354 349 350 353 352 354 352 352 350 350 350
358 358 355 354 355 354 354 352 353 351 350 349 347 347 347 346 348 347 351 352 349 348 350 351 353 353 351 348 348 348 349 349 352 354 353 352 352 351 352 351 350 352 353
351 350 351 353 353 351 352 352 352 351 349 349 349 348 347 345 344 344 345 345 347 347 350 348 344 341 338 342 342 343 346 348 350 353 354 351 345 338 340 344 346 346 347
337 335 334 334 337 340 351 351 351 350 350 349 347 347 346 343 342 343 343 344 344 344 345 343 340 335 334 339 343 346 354 350 347 345 341 338 329 321 328 337 336 336 335
329 329 328 327 330 333 342 345 346 347 347 347 346 345 345 344 342 340 341 341 342 342 341 338 336 336 329 334 338 340 346 345 336 325 325 320 319 318 319 322 324 319 316
324 322 323 323 323 327 331 328 329 330 334 340 342 342 341 341 339 339 340 338 338 336 334 332 330 325 324 325 329 333 336 332 332 336 326 321 317 316 316 318 316 314 321
321 321 320 320 321 323 325 324 325 327 329 330 332 333 335 336 336 336 337 336 334 331 330 329 324 323 320 320 324 329 330 330 326 325 322 317 316 316 320 317 319 322 324
319 319 319 318 319 320 321 321 323 325 326 327 328 327 331 332 333 332 331 331 331 330 328 327 325 322 319 316 315 315 316 317 320 317 315 314 315 318 319 318 319 319 319
317 317 317 317 316 316 317 318 320 321 322 323 324 326 327 325 329 326 328 328 322 327 329 331 327 323 319 315 314 312 312 311 312 312 314 313 315 316 315 315 314 313 313
318 314 314 315 316 315 315 316 317 319 319 319 320 320 323 322 318 314 313 313 314 315 317 317 320 321 319 314 309 305 308 308 308 310 314 313 313 312 311 310 309 308 307
318 316 316 314 314 311 312 314 315 316 316 317 317 318 320 318 316 315 310 308 308 310 313 313 314 313 312 309 303 301 301 302 308 312 314 312 312 311 311 310 311 310 309

GFSMW_925_thetae_111.txt.gz
Theta_e
340 342 346 344 342 345 346 345 344 346 344 347 347 348 347 348 349 348 348 351 350 351 352 352 338 347 349 353 352 350 352 350 343 347 349 346 345 345 345 345 345 343 346
341 342 346 346 344 346 345 346 344 343 344 347 347 347 346 348 349 351 351 348 350 349 352 353 350 349 351 352 352 352 355 353 345 347 354 343 343 344 346 346 346 345 344
344 343 346 346 346 346 345 347 345 344 346 351 349 350 347 350 351 352 349 350 349 347 351 353 350 351 350 352 354 354 354 355 354 348 353 350 353 347 344 344 343 343 345
344 344 346 345 347 346 349 346 344 342 348 350 349 349 347 349 349 349 350 349 348 350 349 352 353 352 350 351 353 353 351 353 354 353 351 346 343 338 346 344 341 341 342
344 344 344 345 347 348 346 349 346 341 348 348 349 349 349 349 348 347 350 350 350 350 349 350 350 352 352 350 353 354 350 352 353 355 352 346 344 343 337 340 336 335 341
347 347 346 346 347 348 348 350 349 345 344 350 349 350 351 349 346 348 347 350 350 351 350 350 351 350 351 352 349 353 350 350 350 351 353 350 344 343 339 338 337 337 341
348 348 347 347 348 348 350 352 349 349 345 348 348 349 350 347 343 345 342 349 349 350 351 351 352 353 350 351 352 352 348 350 350 352 350 346 344 340 337 331 337 341 343
348 347 346 347 348 349 352 354 353 350 346 350 351 348 350 350 349 347 343 347 346 349 350 351 352 350 353 351 354 350 352 350 350 350 348 351 352 351 350 348 343 336 342
346 348 347 348 348 348 353 355 354 350 350 352 353 351 352 351 348 348 348 347 340 345 350 351 351 352 352 353 353 352 350 351 351 347 352 350 353 350 349 351 351 350 344
343 346 346 348 349 348 352 356 353 350 349 353 353 351 351 352 351 347 344 342 337 338 346 350 353 352 351 349 352 352 351 353 352 352 351 352 349 348 349 348 353 351 349
342 341 344 347 348 350 351 353 355 353 352 355 352 351 352 351 352 347 347 347 340 347 347 347 353 353 353 352 353 352 349 352 350 351 348 350 351 351 352 352 352 351 353
342 341 346 347 346 347 349 353 352 350 355 351 354 352 348 349 351 351 350 350 342 351 346 346 351 352 352 354 352 352 353 352 351 351 351 351 349 352 350 351 351 350 352
342 349 351 347 348 348 349 349 352 353 353 351 355 352 351 349 350 348 350 349 351 352 351 352 351 352 353 353 352 354 351 351 353 351 351 351 351 352 350 349 352 350 351
343 351 349 348 348 345 347 346 350 348 352 353 352 353 351 351 351 350 346 349 352 351 350 353 353 350 351 352 354 353 353 351 352 353 353 351 350 350 351 350 352 350 350
348 350 349 347 345 342 341 342 341 342 344 351 352 351 348 350 352 350 350 350 349 351 350 352 352 350 351 351 352 353 353 353 350 349 350 352 352 351 350 350 349 348 348
352 351 350 349 342 341 342 342 337 339 348 349 348 349 347 348 349 349 351 350 350 350 349 350 351 350 350 349 347 348 353 352 351 351 351 350 351 350 352 351 351 350 352
348 352 351 353 352 344 339 347 344 345 350 348 348 346 343 344 346 346 347 349 347 346 346 349 349 350 349 348 348 347 348 350 351 351 351 351 350 349 348 346 348 347 347
336 337 339 340 346 353 348 350 348 349 349 347 347 347 345 346 345 346 346 346 346 346 347 346 346 344 343 341 342 342 344 348 349 348 350 348 344 340 341 343 344 340 339
331 331 330 331 335 341 351 350 349 350 349 348 349 348 347 345 343 342 342 344 344 345 346 344 339 335 337 338 341 346 350 348 346 343 341 337 328 325 336 336 334 334 325
324 325 326 327 330 333 342 348 349 349 349 348 347 346 344 343 342 342 342 343 343 343 341 338 336 335 330 333 336 342 347 338 333 328 322 320 319 318 318 319 316 315 319
322 322 322 323 325 329 336 333 332 334 342 347 346 346 344 342 340 339 339 341 340 339 338 337 332 327 324 327 331 336 339 335 329 327 320 317 316 317 318 317 318 321 324
320 320 320 321 323 325 328 327 328 331 334 338 339 340 341 339 339 340 339 338 338 335 332 330 324 321 320 321 325 327 328 326 329 323 318 316 316 318 319 318 320 322 322
318 318 318 318 321 322 324 324 325 327 327 328 331 332 335 334 334 336 336 333 331 331 329 325 323 322 318 316 317 318 317 319 318 316 315 314 316 319 317 317 318 320 318
317 316 315 316 316 318 320 321 322 324 326 327 326 325 324 326 326 329 329 329 328 326 327 328 323 319 316 316 315 315 315 315 314 313 313 314 315 315 315 315 315 313 312
314 315 315 316 316 316 316 318 318 317 320 321 322 322 322 319 317 318 314 312 314 316 315 317 324 319 318 316 311 308 309 310 309 310 312 312 312 311 310 309 308 307 307
315 314 314 311 311 314 315 316 316 317 317 317 319 321 319 316 315 316 314 312 307 312 311 311 312 313 313 311 308 304 302 303 305 313 312 311 312 310 310 310 309 307 308

GFSMW_925_thetae_114.txt.gz
Theta_e
341 345 346 345 343 344 343 344 344 343 343 348 348 347 348 346 349 350 349 350 347 349 351 343 343 346 349 351 352 353 351 347 343 348 348 344 343 344 345 346 346 346 345
343 344 343 344 345 345 344 345 343 345 345 347 348 347 347 346 348 349 350 350 350 350 350 350 348 347 348 351 353 352 352 353 350 349 349 341 342 343 345 345 344 345 345
344 343 342 345 346 346 344 344 343 344 343 346 347 348 348 347 348 349 350 349 349 348 350 349 348 349 349 351 352 351 352 352 352 350 351 347 348 342 342 340 340 340 344
344 344 343 343 344 345 345 345 343 342 345 348 349 349 349 350 349 348 349 350 350 346 349 351 347 351 350 350 353 351 351 351 353 347 343 343 342 338 342 341 336 337 339
345 344 344 344 345 345 345 345 343 343 346 349 349 348 347 347 348 348 348 349 350 351 349 350 351 351 350 348 352 352 351 351 351 346 344 340 338 336 336 335 335 336 338
344 345 345 345 345 347 346 346 345 345 347 348 349 348 348 349 348 347 349 348 348 350 352 349 351 349 348 350 349 350 350 351 349 351 348 345 343 341 337 335 335 336 340
344 345 343 345 346 348 348 346 345 345 346 346 349 349 349 349 347 346 349 347 347 349 349 351 348 351 351 350 352 351 348 350 351 352 349 344 343 343 337 333 338 341 342
345 344 344 346 346 347 349 348 346 346 347 346 348 348 348 349 347 346 340 345 348 348 347 349 348 352 350 349 353 351 351 350 350 349 351 349 348 347 348 342 342 339 339
346 345 345 345 346 347 350 349 348 348 346 346 346 346 350 349 349 346 347 343 347 346 349 349 348 351 351 352 352 352 351 351 351 351 351 351 349 348 350 348 347 343 341
346 345 346 347 346 347 349 349 347 348 348 346 348 347 349 348 349 347 347 347 347 342 350 350 348 350 352 352 352 351 351 350 350 350 350 350 348 350 350 346 348 350 346
346 345 346 347 347 348 350 351 351 350 349 347 351 350 350 351 351 350 347 344 343 337 338 346 350 351 352 351 351 352 349 349 352 350 349 348 350 351 352 351 350 351 350
344 343 346 347 348 350 352 353 352 351 349 349 352 352 350 351 350 351 347 346 343 344 347 346 350 351 353 352 351 351 352 347 349 349 350 351 350 352 349 350 350 350 349
341 342 345 346 348 349 352 354 353 352 350 349 352 352 349 352 351 350 349 348 347 347 348 346 348 349 351 350 349 349 349 351 351 350 351 351 350 349 350 349 350 349 349
341 340 345 347 347 348 349 352 352 352 352 352 352 353 351 352 349 348 350 350 348 348 348 348 348 350 350 349 350 350 351 350 350 349 351 351 351 351 349 350 349 350 348
344 347 346 346 346 346 348 349 350 349 348 350 351 352 350 349 349 350 350 349 349 350 351 350 351 349 348 348 348 348 350 351 350 349 350 350 350 349 350 349 349 348 347
341 349 346 346 343 344 344 345 349 349 348 345 348 351 349 350 349 349 348 349 349 347 348 349 350 351 349 349 347 348 350 352 349 349 348 348 350 349 349 350 349 349 351
339 338 345 344 343 343 343 342 343 341 340 347 348 349 348 348 347 349 347 347 347 347 348 347 348 348 348 348 347 347 346 350 350 348 347 349 347 347 347 346 347 345 346
336 334 333 335 337 342 342 342 342 340 344 346 345 346 347 347 346 346 346 347 347 347 346 345 345 344 343 342 340 342 342 345 348 349 347 346 343 342 343 342 341 336 329
329 330 330 333 334 338 343 343 344 343 345 344 345 347 346 346 344 343 345 345 345 346 345 345 343 337 333 337 339 344 346 345 344 342 340 336 331 335 335 336 333 321 325
323 324 326 330 335 336 344 347 347 348 347 347 347 347 346 344 344 343 342 344 344 344 344 340 332 328 333 336 337 343 343 339 334 328 323 321 319 319 319 318 316 322 329
321 322 324 324 327 332 335 335 337 336 342 347 347 346 344 343 342 341 342 343 342 338 332 330 328 329 329 332 335 342 334 330 324 321 318 316 317 318 317 317 320 324 322
319 321 321 322 326 330 331 328 329 333 338 342 343 342 342 341 340 340 340 340 338 335 330 327 324 323 323 325 328 328 334 330 329 321 317 316 317 319 318 319 321 320 320
317 318 319 320 323 325 326 326 327 332 334 334 335 334 337 338 338 338 336 335 334 332 329 326 320 318 317 315 316 322 323 325 324 318 315 315 318 318 317 317 318 318 317
316 316 316 317 317 320 322 324 326 328 328 327 327 330 330 329 329 331 330 329 329 329 327 325 322 318 315 315 315 315 314 314 315 314 313 314 315 315 314 314 313 312 310
315 315 315 316 316 317 318 318 321 323 324 323 322 322 324 325 324 321 319 320 319 318 320 326 322 318 316 314 310 311 311 311 310 313 313 312 312 311 310 308 307 308 308
313 312 313 314 314 315 316 317 317 317 319 321 320 317 316 317 318 320 318 318 318 317 313 315 321 319 317 313 311 308 305 303 304 312 312 311 310 309 309 308 307 308 308

GFSMW_925_thetae_117.txt.gz
Theta_e
341 343 345 345 345 344 343 344 345 345 345 347 347 346 346 346 347 348 348 349 348 349 349 340 344 348 349 349 352 352 352 349 344 346 345 344 343 343 344 345 345 346 345
342 345 345 345 344 344 343 343 343 343 343 347 347 346 346 346 346 347 349 350 349 348 348 349 347 347 348 350 350 351 350 350 347 350 345 338 341 344 344 344 344 344 344
344 345 344 344 344 343 342 343 342 341 343 347 348 347 347 347 349 349 349 349 349 348 348 348 347 348 348 350 350 351 350 350 347 347 348 345 343 340 340 340 339 342 342
344 344 343 343 344 344 344 344 343 345 345 346 348 346 347 349 348 348 349 349 347 347 349 348 346 348 349 350 351 350 350 350 348 344 343 343 341 337 341 341 337 338 338
342 342 342 343 344 344 344 343 343 344 343 346 347 348 348 346 346 347 348 348 350 350 350 351 350 349 349 348 351 350 349 350 346 345 343 340 337 337 335 335 334 334 336
343 341 342 343 343 345 344 344 344 344 346 347 349 348 347 348 348 348 348 347 349 350 352 349 350 350 348 350 348 349 349 348 350 346 344 344 342 340 336 333 333 335 339
344 343 342 342 343 345 345 345 344 344 347 347 348 348 348 347 348 347 347 348 347 347 348 350 349 350 350 349 350 351 348 349 349 348 345 343 345 343 337 334 338 341 341
344 343 343 342 343 345 345 345 345 344 345 347 347 348 347 347 347 347 346 348 347 347 347 348 350 347 351 349 349 349 350 349 349 348 349 346 345 347 348 345 342 340 338
344 344 343 344 344 346 346 345 345 345 346 346 346 347 347 347 347 347 344 344 344 347 348 348 349 348 351 351 351 352 350 349 350 350 349 349 348 347 348 347 346 345 341
345 343 343 344 345 345 347 346 345 345 344 345 346 347 347 347 348 348 345 346 344 346 346 348 349 347 350 351 352 352 351 350 350 351 350 350 347 349 349 347 348 349 347
346 344 343 344 345 346 347 347 347 346 345 346 345 346 346 347 348 348 345 347 346 345 343 347 349 347 349 351 351 351 351 349 350 351 350 349 350 350 351 351 350 351 349
343 344 344 345 345 345 346 348 348 347 345 346 346 346 347 347 349 348 348 347 344 344 338 338 345 350 350 351 351 351 350 351 348 349 349 349 350 350 350 349 350 349 349
345 343 344 346 345 346 347 348 349 348 347 347 347 347 351 349 350 349 349 348 345 343 342 347 345 349 350 351 352 349 349 348 348 349 348 349 350 350 350 349 349 348 348
343 342 343 345 347 347 349 349 350 350 349 349 348 348 350 351 350 349 349 349 347 347 344 348 347 347 348 349 350 350 349 348 349 348 349 350 351 350 349 349 349 349 348
345 346 342 345 347 348 349 351 352 351 350 350 349 349 349 351 350 350 351 349 349 349 347 347 349 349 350 349 348 347 346 338 349 349 349 347 349 349 348 349 349 348 346
344 344 344 345 346 347 347 350 350 350 351 351 350 349 350 352 351 350 350 350 349 347 348 348 350 350 348 348 347 346 346 348 348 349 348 348 346 347 347 349 349 347 348
339 340 341 340 342 342 342 343 346 348 348 349 349 349 350 349 348 347 348 348 347 345 347 346 347 347 348 348 347 347 346 346 346 347 347 347 346 346 347 347 347 346 347
334 334 335 337 341 342 342 342 342 343 344 346 346 347 348 348 347 346 347 347 346 345 346 346 345 344 343 344 341 341 344 343 346 348 347 345 345 344 344 344 341 339 334
326 328 329 330 333 339 343 344 343 343 341 344 345 347 347 347 347 346 346 345 346 346 346 345 344 343 343 340 337 341 343 343 344 342 340 337 337 339 339 339 337 328 330
323 323 326 328 331 337 340 343 344 345 345 344 344 345 345 346 345 343 342 342 344 344 344 343 342 342 337 336 336 340 343 342 341 340 336 326 326 330 325 326 322 329 326
321 323 324 325 327 331 338 339 341 343 336 341 345 345 345 344 343 343 342 343 342 341 339 336 329 327 327 331 338 341 339 339 334 332 321 318 318 318 318 317 320 326 322
320 322 322 323 326 329 331 330 330 333 339 341 343 342 342 342 341 341 341 340 338 333 328 324 321 319 323 327 333 333 331 326 323 318 316 317 318 318 318 321 322 322 320
318 319 322 322 324 326 329 329 328 330 331 336 336 335 339 340 339 339 337 334 332 330 324 321 319 318 317 320 325 328 328 325 322 317 316 318 318 318 318 319 319 318 318
316 317 317 318 319 321 324 326 327 327 330 330 328 329 331 329 331 332 331 330 330 329 326 323 320 317 315 315 315 320 320 320 317 315 314 316 316 315 315 314 313 313 312
315 315 316 316 316 317 318 320 323 324 323 323 324 325 325 326 325 325 323 322 321 322 323 322 320 317 315 313 314 314 314 314 314 313 313 313 312 311 309 309 308 308 309
313 313 313 313 314 314 315 316 317 320 320 317 316 317 319 321 321 320 319 321 321 318 321 322 320 317 316 314 309 307 307 305 306 312 312 312 311 309 308 308 308 308 306

GFSMW_925_thetae_123.txt.gz
Theta_e
345 345 346 346 346 347 347 348 349 346 345 346 348 349 347 347 342 344 344 345 347 349 346 344 346 346 349 350 350 352 351 350 348 349 348 347 346 347 344 344 346 346 345
346 345 346 346 346 347 348 348 347 346 347 348 347 348 348 349 349 346 347 348 347 348 348 345 347 346 352 349 349 348 353 351 350 354 348 350 348 347 347 348 348 347 346
347 346 346 346 346 347 347 347 345 346 346 347 346 345 345 347 349 346 346 349 348 347 348 347 346 346 348 353 349 352 352 351 348 347 355 352 349 349 347 347 346 344 345
346 345 346 346 347 346 347 347 345 345 346 345 346 346 348 348 346 345 347 348 348 349 349 348 347 348 348 350 350 352 351 350 351 349 346 344 349 350 350 348 346 345 344
344 344 345 346 346 346 346 346 345 344 346 345 347 346 347 346 345 349 346 345 346 348 348 348 348 348 348 349 349 349 349 351 352 350 348 346 344 344 345 345 341 344 342
344 344 344 346 346 345 345 345 346 343 343 343 345 347 348 346 349 349 350 350 349 350 348 348 349 347 349 348 350 349 348 349 351 350 348 349 347 348 344 344 347 347 347
344 345 346 346 346 346 346 346 346 345 343 345 346 347 346 345 346 348 350 349 350 350 350 348 349 347 348 348 348 348 348 349 351 350 350 348 348 346 344 345 348 349 348
344 345 346 346 346 346 346 346 346 346 345 347 348 346 346 349 350 350 350 350 350 350 347 348 347 346 346 349 349 352 352 350 351 353 353 351 348 347 348 349 349 348 349
344 344 345 345 346 346 347 346 346 346 346 347 348 345 346 347 348 347 346 347 346 347 347 346 347 348 350 348 349 352 350 351 352 352 351 351 351 347 349 350 350 350 349
344 343 344 344 345 346 346 346 347 346 346 347 349 349 349 347 347 347 347 346 346 345 344 346 346 349 352 353 350 351 353 352 353 351 353 351 353 352 350 350 351 350 350
346 345 342 343 345 345 345 346 347 347 346 346 348 349 350 347 347 347 347 347 346 346 341 344 347 347 351 352 349 348 350 353 352 353 352 354 352 351 352 353 351 352 352
346 345 343 344 344 345 345 345 346 347 347 347 348 347 348 348 349 347 346 346 347 345 346 345 344 344 348 351 349 350 351 352 352 353 353 353 351 352 350 351 350 352 352
346 345 344 344 345 345 345 346 347 347 347 347 348 348 348 348 348 349 347 345 347 346 346 343 342 343 344 346 350 350 349 350 351 352 353 350 353 352 351 350 352 350 353
347 345 347 346 345 346 346 347 348 346 348 348 348 348 348 348 348 348 345 345 347 347 347 344 341 340 345 348 349 350 348 348 350 347 346 348 348 347 347 349 348 348 348
348 348 349 347 347 347 347 347 348 346 346 348 347 346 349 349 348 350 347 345 347 348 348 347 345 343 349 349 348 348 348 347 351 352 349 351 347 346 347 348 348 347 348
341 347 346 345 346 348 348 348 346 345 348 347 348 349 349 348 350 351 351 349 348 349 349 348 347 347 348 348 347 347 347 349 350 348 348 348 347 347 347 346 347 348 348
335 336 337 341 347 346 344 349 350 349 348 349 350 349 349 349 348 347 347 346 350 348 348 349 350 347 346 347 347 346 345 346 348 350 346 347 346 347 345 346 346 346 346
331 330 329 331 334 338 341 345 346 348 347 347 347 347 348 348 348 348 347 347 346 347 348 349 345 343 345 344 344 344 341 342 345 344 347 347 344 343 344 341 339 338 337
327 327 326 328 330 334 338 341 342 344 346 345 345 345 345 345 345 344 346 347 346 346 345 344 344 345 344 343 343 340 340 340 340 342 343 342 341 341 342 340 335 332 333
324 324 326 327 329 332 335 340 341 343 343 344 342 339 340 343 342 342 343 345 345 345 344 343 343 343 343 341 340 339 339 338 338 338 336 336 335 334 336 338 336 330 329
322 323 324 324 326 330 337 338 339 337 339 342 341 340 341 342 342 344 344 344 343 342 341 339 339 338 335 336 337 337 340 339 339 337 336 334 332 327 325 321 325 326 326
321 321 322 322 325 328 330 329 329 332 336 337 338 340 341 341 341 342 340 339 338 335 332 333 332 330 330 332 335 336 337 338 338 335 335 333 329 319 319 318 319 323 323
320 320 321 321 322 324 325 324 323 327 329 332 332 335 336 338 337 336 336 334 333 330 324 326 320 316 321 326 330 333 332 331 330 325 320 318 318 318 320 320 319 318 318
319 319 320 319 319 322 324 323 324 326 327 326 326 328 329 330 331 329 329 328 325 322 320 317 316 316 318 320 324 322 319 317 316 316 317 317 317 319 320 320 319 320 318
317 317 316 315 316 318 319 319 321 325 324 322 322 323 322 323 324 323 321 323 322 323 322 320 317 314 311 310 310 313 315 315 315 316 315 313 312 313 313 314 314 313 313
316 315 315 314 314 313 315 315 317 316 315 315 316 319 321 321 319 320 319 320 321 323 322 319 319 317 318 317 312 314 315 314 312 312 312 312 311 312 313 314 313 311 310

GFSMW_925_thetae_126.txt.gz
Theta_e
346 346 346 345 346 346 347 350 350 351 351 350 348 347 347 347 346 346 349 350 352 353 353 350 351 354 352 358 356 354 354 351 353 349 348 348 348 347 347 348 348 350 350
347 347 346 346 346 347 347 349 349 349 351 350 349 348 349 348 347 348 350 351 351 353 354 352 353 354 353 356 359 358 351 352 354 353 348 349 347 345 347 349 350 351 350
346 348 347 346 346 347 348 348 350 351 351 351 351 352 351 349 350 351 349 351 352 352 355 354 354 354 354 352 356 357 357 350 353 356 355 351 350 348 350 350 349 350 348
345 346 347 347 346 347 348 348 351 351 350 349 350 349 348 347 348 351 349 351 352 353 354 353 355 355 353 355 354 355 357 357 351 351 351 353 353 350 348 348 346 347 346
344 345 346 347 347 347 348 348 350 350 350 351 351 349 347 348 348 348 351 351 352 353 354 354 354 355 352 356 355 354 357 355 354 351 351 352 348 348 347 346 345 347 345
344 344 344 346 347 347 348 349 350 351 351 352 348 349 349 349 348 350 350 349 348 349 352 353 354 355 353 354 354 355 355 354 355 353 352 349 348 347 346 346 346 346 348
345 345 345 345 347 348 348 348 350 351 350 350 350 349 350 350 349 350 348 350 350 349 350 352 352 351 350 351 353 355 354 355 354 356 352 350 351 349 348 347 345 346 345
347 344 345 346 348 348 349 348 349 351 350 349 349 350 351 349 349 351 348 351 350 350 351 353 353 352 352 353 353 352 352 352 352 355 355 351 349 349 349 348 347 344 345
347 344 344 346 348 349 349 349 349 351 349 347 348 350 351 351 351 351 353 350 353 352 354 354 354 353 353 354 353 353 353 353 353 351 353 352 348 349 347 348 347 346 345
348 345 344 346 348 348 349 349 349 350 349 347 348 349 350 352 352 354 351 353 353 354 352 353 353 353 353 354 354 352 353 354 352 350 350 353 348 350 349 349 348 348 346
348 347 345 345 347 347 348 348 349 349 350 348 348 348 349 349 352 352 353 352 354 354 354 353 352 354 354 354 355 354 352 353 354 353 352 353 353 350 348 348 348 347 348
347 347 344 346 346 347 347 348 349 349 350 348 348 349 349 350 350 352 352 352 353 354 354 353 353 353 353 354 355 354 351 352 352 352 352 353 351 353 353 349 348 349 350
347 348 347 345 346 347 349 349 349 349 350 350 349 350 350 350 350 349 351 351 352 353 353 353 352 351 350 351 353 354 352 352 352 352 353 353 353 353 350 351 351 350 351
349 349 348 346 346 348 349 351 350 350 350 351 350 351 351 350 349 350 351 351 352 353 353 353 352 350 349 349 350 352 353 353 352 352 352 352 352 353 353 351 352 351 353
351 350 348 347 346 346 348 350 347 351 351 351 352 352 352 352 352 351 351 353 352 351 352 354 353 351 351 351 352 352 353 353 352 352 352 350 352 351 350 350 351 350 350
341 343 348 348 348 349 350 350 348 347 351 347 349 351 352 351 351 351 353 353 353 352 353 353 353 352 350 349 349 348 352 352 353 353 352 352 350 346 347 347 347 347 350
335 336 337 339 343 346 348 349 351 353 349 352 350 349 350 352 352 352 351 350 351 351 351 352 352 351 351 350 348 347 347 350 351 352 352 352 350 348 352 349 345 346 346
333 332 331 333 338 343 346 345 348 352 353 352 351 353 354 352 350 351 352 352 347 346 348 350 350 350 352 348 345 345 345 345 348 351 351 352 352 350 350 348 347 345 342
329 330 329 329 332 336 340 344 346 347 349 350 351 350 351 351 351 347 349 350 349 345 344 345 344 348 348 344 344 344 343 342 344 343 343 347 349 346 342 346 345 343 334
328 329 330 332 331 332 336 343 344 345 347 348 346 345 343 344 343 343 343 343 346 347 345 343 344 345 344 343 343 343 341 339 337 335 335 337 336 334 337 344 342 340 338
326 328 328 330 328 331 337 337 338 338 340 345 345 345 346 347 347 346 343 344 345 345 344 343 340 340 338 339 339 337 336 337 337 335 330 330 332 328 324 323 330 332 330
327 327 328 332 330 328 331 330 330 331 336 340 336 338 339 339 341 341 340 338 337 334 330 332 330 330 327 332 336 335 333 335 336 335 333 333 333 331 325 320 319 321 324
325 324 326 329 330 329 327 326 326 329 331 333 335 335 336 336 336 337 334 331 329 327 324 321 319 320 323 326 326 327 328 327 328 327 325 323 322 322 321 320 319 320 323
324 324 325 326 327 328 327 325 324 326 328 327 323 326 328 329 330 330 329 326 325 324 323 324 321 318 320 323 323 321 321 317 317 317 317 316 317 318 319 320 320 319 319
325 322 322 325 325 323 323 324 324 324 322 322 321 321 322 322 323 323 322 323 323 323 323 321 320 318 316 315 315 315 315 315 316 316 317 319 318 316 316 315 316 317 318
322 321 320 319 319 320 320 320 320 319 320 321 320 320 320 319 320 320 319 321 321 321 320 318 319 317 316 317 316 316 317 317 316 314 314 313 313 314 315 315 315 314 314